This demonstration page uses our WeatherBlox Daily Observations layout. Learn more.

38.89511, -77.03637

Hourly Observations for September 9, 2017

Temp ( °F °C ) Dew Point ( °F °C ) Humidity (%) Winds ( mph kmh ) Pressure ( in mb ) Visibility ( mi km ) Precip ( " mm )
12:52 am 00:52 Partly Cloudy 62 16.7 53 11.7 73 73 NNW 7 11 30.21 1023 10 16.09344 0 0
1:52 am 01:52 Partly Cloudy 61 16.1 52 11.1 72 72 NNW 7 11 30.21 1023 10 16.09344 0 0
2:52 am 02:52 Partly Cloudy 60 15.6 52 11.1 75 75 NNW 7 11 30.21 1023 10 16.09344 0 0
3:52 am 03:52 Mostly Clear 60 15.6 52 11.1 75 75 NNW 8 13 30.21 1023 10 16.09344 0 0
4:52 am 04:52 Mostly Cloudy 59 15 53 11.7 81 81 NNW 9 15 30.24 1024 10 16.09344 0 0
5:52 am 05:52 Mostly Cloudy 59 15 52 11.1 78 78 NNW 8 13 30.27 1025 10 16.09344 0 0
6:52 am 06:52 Mostly Cloudy 57 13.9 51 10.6 81 81 N 7 11 30.27 1025 10 16.09344 0 0
7:52 am 07:52 Mostly Sunny 60 15.6 50 10 70 70 N 9 15 30.3 1026 10 16.09344 0 0
8:52 am 08:52 Sunny 62 16.7 52 11.1 70 70 ENE 9 15 30.3 1026 10 16.09344 0 0
9:52 am 09:52 Mostly Sunny 65 18.3 52 11.1 63 63 NNE 10 17 30.33 1027 10 16.09344 0 0
10:52 am 10:52 Partly Cloudy 67 19.4 51 10.6 57 57 NE 9 15 30.33 1027 10 16.09344 0 0
11:52 am 11:52 Partly Cloudy 69 20.6 51 10.6 53 53 N 9 15 30.33 1027 10 16.09344 0 0
12:52 pm 12:52 Partly Cloudy 71 21.7 51 10.6 49 49 N 5 7 30.33 1027 10 16.09344 0 0
1:52 pm 13:52 Mostly Cloudy 69 20.6 51 10.6 53 53 N 7 11 30.3 1026 10 16.09344 0 0
2:52 pm 14:52 Mostly Cloudy 70 21.1 49 9.4 47 47 N 7 11 30.27 1025 10 16.09344 0 0
3:52 pm 15:52 Partly Cloudy 71 21.7 50 10 47 47 N 13 20 30.27 1025 10 16.09344 0 0
4:52 pm 16:52 Partly Cloudy 72 22.2 49 9.4 44 44 NNW 10 17 30.27 1025 10 16.09344 0 0
5:52 pm 17:52 Mostly Sunny 71 21.7 48 8.9 44 44 N 10 17 30.27 1025 10 16.09344 0 0
6:52 pm 18:52 Mostly Sunny 68 20 48 8.9 49 49 N 10 17 30.27 1025 10 16.09344 0 0
7:52 pm 19:52 Mostly Clear 67 19.4 48 8.9 51 51 NNE 13 20 30.3 1026 10 16.09344 0 0
8:52 pm 20:52 Clear 65 18.3 48 8.9 54 54 NNE 10 17 30.33 1027 10 16.09344 0 0
9:52 pm 21:52 Clear 64 17.8 49 9.4 58 58 NNE 13 20 30.33 1027 10 16.09344 0 0
10:52 pm 22:52 Clear 63 17.2 49 9.4 60 60 NNE 12 19 30.33 1027 10 16.09344 0 0
11:52 pm 23:52 Clear 61 16.1 49 9.4 65 65 NE 10 17 30.33 1027 10 16.09344 0 0

Powered by AerisWeather